Regional Weather Roundup
Issued by NWS Goodland, KS

Home | Current Version | Previous Version | Text Only | Print | Product List | Glossary On
Versions: 1 2 3 4 5 6 7 8 9 10 11 12 13 14 15 16 17 18 19 20 21 22 23 24 25 26 27 28 29 30 31 32 33 34 35 36 37 38 39 40 41 42 43 44 45 46 47 48 49 50
000
ASUS43 KGLD 012008
RWRGLD

GOODLAND FORECAST AREA HOURLY WEATHER ROUNDUP
NATIONAL WEATHER SERVICE GOODLAND KS
200 PM MDT SUN MAY 01 2016

...OFFICIAL OBSERVATIONS...

CITY           SKY/WX    TMP DP  RH WIND       PRES   REMARKS
GOODLAND KS    CLOUDY    50  32  50 N21G36    30.19R
HILL CITY KS   CLOUDY    50  40  68 N15G22    30.18S
IMPERIAL NEB   PTSUNNY   52  33  48 N25G33    30.22F
MCCOOK NEB     CLOUDY    52  36  54 N21       30.18F
AKRON CO       MOSUNNY   38  30  73 N10       30.26F
BURLINGTON CO  PTSUNNY   49  29  46 N26       30.22R
LIMON CO       CLOUDY    36  31  82 N14       30.27R
$$

...UNOFFICIAL OBSERVATIONS...

CITY           SKY/WX    TMP DP  RH WIND       PRES   REMARKS
COLBY KS       CLOUDY    48  41  76 N17       30.19S
LENORA KS        N/A     47  32  56 MISG        N/A
NORTON KS      CLOUDY    48  37  66 N18G25    30.16S
SHARON SPRINGS   N/A     47  38  72 N14G22      N/A
KIT CARSON CO    N/A     44  33  65 MISG        N/A
YUMA CO          N/A     44  35  72 NE16        N/A
$$




USA.gov is the U.S. government's official web portal to all federal, state and local government web resources and services.